Regional Weather Roundup
Issued by NWS

Home | Current Version | Previous Version | Text Only | Print | Product List | Glossary On
Versions: 1 2 3 4 5 6 7 8 9 10 11 12 13 14 15 16 17 18 19 20 21 22 23 24 25 26 27 28 29 30 31 32 33 34 35 36 37 38 39 40 41 42 43 44 45 46 47 48 49 50
522
ASUS45 KPSR 271610
RWRAZ

ARIZONA HOURLY REGIONAL WEATHER ROUNDUP
NATIONAL WEATHER SERVICE PHOENIX AZ
900 AM MST MON FEB 27 2017

NOTE: FAIR INDICATES FEW OR NO CLOUDS BELOW 12,000 FEET WITH NO
SIGNIFICANT WEATHER AND/OR OBSTRUCTIONS TO VISIBILITY.

AZZ001>003-036-271700-
NORTHWEST ARIZONA

CITY           SKY/WX    TMP DP  RH WIND       PRES   REMARKS
BULLHEAD CITY  CLOUDY    52  37  58 S6        29.89R
KINGMAN        CLOUDY    47  12  24 E8        29.86R
$$

AZZ004>008-015-016-018-271700-
NORTH CENTRAL ARIZONA

CITY           SKY/WX    TMP DP  RH WIND       PRES   REMARKS
GRAND CANYON   CLOUDY    33  26  75 SW17G32   29.88R WCI  22
WILLIAMS       CLOUDY    34  25  69 S18G31    29.89R WCI  23
PRESCOTT       CLOUDY    39  33  79 SE10      29.94R WCI  32
FLAGSTAFF      LGT SNOW  30  26  85 SW15      29.91R FOG     WCI  19
PAYSON         CLOUDY    43  30  61 VRB7G16   30.03R
PAGE           PTSUNNY   48  17  29 SW10      29.77S
$$

AZZ009>014-017-271700-
NORTHEAST ARIZONA

CITY           SKY/WX    TMP DP  RH WIND       PRES   REMARKS
WINSLOW        PTSUNNY   46  27  47 S17       29.92R
SAINT JOHNS    MOSUNNY   40  24  53 E6        29.94R
WINDOW ROCK    CLOUDY    35  24  64 SW15G24   29.91R WCI  25
SHOW LOW       MOSUNNY   36  23  60 S25G36    29.96R WCI  23
$$

AZZ023-271700-
GREATER PHOENIX AREA

CITY           SKY/WX    TMP DP  RH WIND       PRES   REMARKS
PHOENIX        CLOUDY    52  37  56 E9        29.97R
BUCKEYE        CLOUDY    54  39  58 E12       29.96R
GLENDALE       PTSUNNY   52  39  62 CALM      29.98R
LUKE AFB       CLOUDY    51  38  61 CALM      29.97R
DEER VALLEY    CLOUDY    53  37  54 SE12      29.96R
SCOTTSDALE     PTSUNNY   55  37  50 SE8       29.98S
MESA-FALCON    MOSUNNY  N/A N/A N/A E13G18    29.96
MESA-GATEWAY   PTSUNNY   54  39  58 SE10      30.00
CHANDLER       SUNNY     54  39  58 NE7       29.99R
$$

AZZ027-028-271700-
SOUTHWEST MARICOPA COUNTY AND PINAL COUNTY

CITY           SKY/WX    TMP DP  RH WIND       PRES   REMARKS
CASA GRANDE    NOT AVBL
GILA BEND      PTSUNNY   57  36  44 SE8       29.93R
$$

AZZ503-504-507>509-271700-
SOUTHEAST ARIZONA

CITY           SKY/WX    TMP DP  RH WIND       PRES   REMARKS
TUCSON         MOSUNNY   54  34  46 SE10      30.05R
DAVIS-MONTHAN  PTSUNNY   54  34  46 SE7       30.04R
RYAN FIELD       N/A     54  36  50 E10       30.03S
NOGALES        PTSUNNY   50  33  52 S6        30.06R
SIERRA VISTA   MOSUNNY   49  26  41 E5        30.07R
DOUGLAS        MOSUNNY   51  28  41 VRB5      30.08R
SAFFORD        SUNNY     48  29  47 CALM      30.03R
$$

AZZ020-021-025-026-031-271700-
SOUTHWEST ARIZONA

CITY           SKY/WX    TMP DP  RH WIND       PRES   REMARKS
YUMA           CLOUDY    59  51  75 SE10      29.91R
$$

CAZ031-033-041-043-047-048-061-271700-
SOUTHERN CALIFORNIA

CITY           SKY/WX    TMP DP  RH WIND       PRES   REMARKS
DOWNTOWN L.A.  CLOUDY    54  43  66 CALM      29.88S
L.A. AIRPORT   CLOUDY    52  44  74 E6        29.89S
SAN DIEGO      LGT RAIN  58  55  90 S20       29.92R FOG
BURBANK        CLOUDY    50  39  66 CALM      29.88R
ONTARIO        CLOUDY    49  43  80 SE3       29.89S
RIVERSIDE      CLOUDY    48  46  93 N3        29.90R
PALM SPRINGS   LGT RAIN  52  46  80 CALM      29.92R
EL CENTRO NAS  PTSUNNY   56  41  57 SE6       29.89S
IMPERIAL         N/A     57  43  59 SE12      29.86F
BLYTHE         CLOUDY    55  42  61 E5        29.91R
NEEDLES        CLOUDY    55  37  50 CALM      29.88R
$$

NVZ020-UTZ003-271700-
SOUTHERN NEVADA-UTAH

CITY           SKY/WX    TMP DP  RH WIND       PRES   REMARKS
LAS VEGAS      PTSUNNY   51  27  39 S15G21    29.76R
SALT LAKE CITY LGT SNOW  30  29  96 NE7       29.66S VSB 3/4 WCI  23
$$

NMZ009-TXZ055-271700-
NEW MEXICO-WEST TEXAS

CITY           SKY/WX    TMP DP  RH WIND       PRES   REMARKS
ALBUQUERQUE    CLOUDY    39  25  57 S6        29.97R WCI  35
EL PASO        MOSUNNY   50  19  29 S5        30.02R
$$


........................KEY........................
SKY/WX - SKY CONDITION/WEATHER
TMP    - TEMPERATURE IN FAHRENHEIT
DP     - DEW POINT IN FAHRENHEIT
RH     - RELATIVE HUMIDITY IN PERCENT
WIND   - DIRECTION AND SPEED IN MILES PER HOUR (MPH)
VRB    - VARIABLE WIND DIRECTION
PRES   - MEAN SEA LEVEL PRESSURE IN INCHES OF MERCURY
         F - FALLING PRESSURE   R - RISING PRESSURE
         S - STEADY PRESSURE
VSB    - VISIBILITY IN MILES
HX     - HEAT INDEX IN FAHRENHEIT
WCI    - WIND CHILL INDEX IN FAHRENHEIT
TC     - TEMPERATURE IN CELSIUS WHICH IS ALSO KNOWN AS
         TEMPERATURE IN CENTIGRADE
AFB    - AIR FORCE BASE
         LUKE AFB IS LUKE AIR FORCE BASE
         DAVIS-MONTHAN IS DAVIS-MONTHAN AIR FORCE BASE
NAS    - NAVAL AIR STATION
         EL CENTRO NAS IS EL CENTRO NAVAL AIR STATION
N/A    - NOT AVAILABLE





USA.gov is the U.S. government's official web portal to all federal, state and local government web resources and services.